Retour au catalogue

STARLINK-5969

ActifCommunicationsVLEO
NORAD 55993·PAYLOAD·🇺🇸 United States

Lancé Mar 24, 2023 depuis Cape Canaveral Space Force Station

Loading…

Prochains Passages (prochaines 24 heures)

TLE

FraisSource: CelesTrak SupGP

Époque: Sep 15, 2026, 03:08 UTC

1 55993C 23042H   26258.13104167 -.00055194  00000+0 -19988-2 0  2588
2 55993  43.0040  69.6547 0001883 271.0772  71.0162 15.27610388    16

Suivez STARLINK-5969 en temps réel avec AllMySat

Download on the App Store